Weather History for KFAY - June, 2013

Change the Weather History Date:

Saturday, June 29, 2013

  Actual Average Record
Temperature  
Mean Temperature 80 °F 81 °F  
Max Temperature 88 °F 91 °F 106 °F (2012)
Min Temperature 72 °F 71 °F 53 °F (1970)
Degree Days  
Heating Degree Days 0 0  
Month to date heating degree days 0 0  
Since 1 June heating degree days 0 0  
Since 1 July heating degree days 2762 2732  
Cooling Degree Days 15 16  
Month to date cooling degree days 380 380  
Year to date cooling degree days 629 664  
Since 1 June cooling degree days 380 380  
Growing Degree Days 30 (Base 50)    
Moisture  
Dew Point 71 °F    
Average Humidity 76    
Maximum Humidity 93    
Minimum Humidity 59    
Precipitation  
Precipitation 0.02 in 0.17 in 2.23 in (1941)
Month to date precipitation 8.20 4.16  
Year to date precipitation 21.54 19.83  
Sea Level Pressure  
Sea Level Pressure 29.67 in    
Wind  
Wind Speed 8 mph (SSW)    
Max Wind Speed 16 mph    
Max Gust Speed 21 mph    
Visibility 10 miles    
Events      
T = Trace of Precipitation, MM = Missing Value Source: NWS Daily Summary

Daily Weather History Graph

Daily Weather History Graph

Search for Another Location

Airport or City:

Trip Planner

Search our weather history database for the weather conditions in past years. The results will help you decide how hot, cold, wet, or windy it might be!

Date:

Astronomy

Jun. 29, 2013 Rise Set
Actual Time 6:04 AM EDT 8:33 PM EDT
Civil Twilight 5:34 AM EDT 9:03 PM EDT
Nautical Twilight 4:58 AM EDT 9:39 PM EDT
Astronomical Twilight 4:17 AM EDT 10:20 PM EDT
Moon 12:17 AM EDT (6/29) 12:56 PM EDT (6/29)
Length of Visible Light 15h 28m
Length of Day
14h 29m
Waning Gibbous, 56% of the Moon is Illuminated
Jun 29
Waning Gibbous
Jun 30
Last Quarter
Jul 8
New
Jul 15
First Quarter
Jul 22
Full

Hourly Weather History & Observations

Time (EDT) Temp. Heat Index Dew Point Humidity Pressure Visibility Wind Dir Wind Speed Gust Speed Precip Events Conditions
12:53 AM 78.1 °F - 70.0 °F 76% 29.65 in 10.0 mi WNW 11.5 mph - N/A   Mostly Cloudy
1:53 AM 73.0 °F - 71.1 °F 93% 29.62 in 10.0 mi NE 3.5 mph - 0.04 in   Clear
2:53 AM 73.0 °F - 71.1 °F 93% 29.62 in 10.0 mi Calm Calm - N/A   Mostly Cloudy
3:53 AM 73.0 °F - 71.1 °F 93% 29.62 in 10.0 mi Calm Calm - N/A   Overcast
4:53 AM 73.0 °F - 71.1 °F 93% 29.63 in 10.0 mi Calm Calm - N/A   Overcast
5:44 AM 73.4 °F - 71.6 °F 94% 29.65 in 10.0 mi South 3.5 mph - N/A   Scattered Clouds
5:53 AM 73.0 °F - 71.1 °F 93% 29.64 in 10.0 mi Calm Calm - N/A   Partly Cloudy
6:53 AM 73.9 °F - 71.1 °F 91% 29.65 in 10.0 mi South 5.8 mph - N/A   Mostly Cloudy
7:20 AM 75.2 °F - 71.6 °F 89% 29.67 in 10.0 mi SW 6.9 mph - N/A   Overcast
7:28 AM 75.2 °F - 71.6 °F 89% 29.67 in 10.0 mi SW 6.9 mph - N/A   Overcast
7:53 AM 75.0 °F - 72.0 °F 90% 29.66 in 10.0 mi SW 11.5 mph - 0.01 in   Overcast
8:53 AM 77.0 °F - 70.0 °F 79% 29.67 in 10.0 mi SW 12.7 mph - N/A   Mostly Cloudy
9:35 AM 78.8 °F - 69.8 °F 74% 29.69 in 10.0 mi SSW 15.0 mph - N/A   Mostly Cloudy
9:53 AM 77.0 °F - 70.0 °F 79% 29.68 in 10.0 mi SW 13.8 mph - N/A   Overcast
10:53 AM 80.1 °F 83.2 °F 70.0 °F 71% 29.67 in 10.0 mi SW 10.4 mph - N/A   Mostly Cloudy
11:06 AM 80.6 °F 84.6 °F 71.6 °F 74% 29.69 in 10.0 mi SW 8.1 mph - N/A   Scattered Clouds
11:25 AM 80.6 °F 84.6 °F 71.6 °F 74% 29.68 in 10.0 mi SW 9.2 mph - N/A   Mostly Cloudy
11:44 AM 82.4 °F 87.2 °F 71.6 °F 70% 29.68 in 10.0 mi SW 6.9 mph - N/A   Mostly Cloudy
11:53 AM 82.9 °F 87.5 °F 71.1 °F 67% 29.67 in 10.0 mi SW 10.4 mph 17.3 mph N/A   Mostly Cloudy
12:53 PM 84.0 °F 89.0 °F 71.1 °F 65% 29.67 in 10.0 mi SSW 11.5 mph - N/A   Mostly Cloudy
1:53 PM 84.0 °F 89.0 °F 71.1 °F 65% 29.67 in 10.0 mi SSW 9.2 mph - N/A   Overcast
2:05 PM 84.2 °F 89.6 °F 71.6 °F 66% 29.68 in 10.0 mi SSW 10.4 mph - N/A   Mostly Cloudy
2:40 PM 84.2 °F 89.6 °F 71.6 °F 66% 29.68 in 10.0 mi SSW 10.4 mph - N/A   Mostly Cloudy
2:50 PM 86.0 °F 91.8 °F 71.6 °F 62% 29.68 in 10.0 mi SSW 9.2 mph - N/A   Scattered Clouds
2:53 PM 86.0 °F 92.2 °F 72.0 °F 63% 29.66 in 10.0 mi South 10.4 mph - N/A   Scattered Clouds
3:53 PM 87.1 °F 93.6 °F 72.0 °F 61% 29.66 in 10.0 mi SSW 10.4 mph - N/A   Mostly Cloudy
4:53 PM 86.0 °F 92.2 °F 72.0 °F 63% 29.66 in 10.0 mi South 10.4 mph - N/A   Mostly Cloudy
5:53 PM 86.0 °F 91.5 °F 71.1 °F 61% 29.66 in 10.0 mi South 10.4 mph - N/A   Clear
6:53 PM 84.0 °F 89.0 °F 71.1 °F 65% 29.67 in 10.0 mi South 8.1 mph - N/A   Clear
7:53 PM 80.1 °F 83.8 °F 72.0 °F 76% 29.68 in 10.0 mi South 8.1 mph - N/A   Clear
8:53 PM 78.1 °F - 72.0 °F 81% 29.70 in 10.0 mi South 8.1 mph - N/A   Clear
9:53 PM 78.1 °F - 73.0 °F 84% 29.71 in 10.0 mi South 9.2 mph - N/A   Clear
10:53 PM 79.0 °F - 72.0 °F 79% 29.73 in 10.0 mi SSW 9.2 mph - N/A   Clear
11:53 PM 77.0 °F - 72.0 °F 84% 29.74 in 10.0 mi South 10.4 mph - N/A   Mostly Cloudy